Kezdőlap
METAR-TAF:

METAR-TAF

Repülőterek :

Baudette, Minnesota, Amerikai Egyesült Államok

földrajzi szélesség: 48-43-36N, földrajzi hosszúság: 094-36-44W, magasság: 330 m

Jelenlegi meteorológiai megfigyelések

A jelentés 48 perccel ezelõtt készült, 08:53 UTC
Déli szél 6 kt
Hőmérséklet 22°C
Páratartalom 78%
Légköri nyomás 1013 hPa
Látótávolság: 16.1 km
Derült ég

METAR: KBDE 130853Z AUTO 18006KT 10SM CLR 22/18 A2991 RMK AO2 SLP123 T02170178 58013

Idő: 04:41 (09:41 UTC)


TAF: hiányzik

Meteorológiai megfigyelések és előrejelzések több, mint 4000 repülőtéren (METAR és TAF jelentéseket).

A térképen piros és sárga pontok jelzik az elérhető meteorológiai állomásokat.

Mozgassa az egeret a pont fölött, hogy megjelenjen az állomás neve.

Azután kattintson az időjárási megfigyelések és előrejelzések megtekintéséhez.

A térkép megváltoztatása: kattintson a fekete keresztel jelölt zöld gombra ráközelítéshez, a vonallal jelölt zöld gombra távolításhoz, vagy a zöld nyilakra a szomszédos térképek eléréséhez.


METAR-TAF: